User: anonymous   Login
Location: Eaton
(41.3139°N, 82.0207°W)
Time: 21:27:13
(UTC+00:00)
Language:

Cosmos 2369 Rocket - Orbit

View from above orbital plane
View from above orbital plane
View from above satellite
View from above satellite

Ground track
Ground track

The orbit data is extracted from the following two-line orbital elements,

1 26070U 00006B   21269.37074772 -.00000257  00000-0 -10724-3 0  9991
2 26070  71.0002 274.1743 0014936 142.1309 218.0867 14.15470165118543
Epoch (UTC): 26 September 2021 08:53:52
Eccentricity: 0.0014936
inclination: 71.0002°
perigee height: 830 km
apogee height: 851 km
right ascension of ascending node: 274.1743°
argument of perigee: 142.1309°
revolutions per day: 14.15470165
mean anomaly at epoch: 218.0867°
orbit number at epoch: 11854

The dashed part of the orbit path shows where the satellite is in the earth's shadow,  

DLR